{"data":{"norad_id":53152,"epoch":"2026-09-19T13:59:07.456416Z","epoch_age_seconds":151431,"freshness":"FRESH","line1":"1 53152U 22083W   26262.58272519  .00618690  22196-3  53543-3 0  9994","line2":"2 53152  53.2106 317.6642 0002731  35.2165 324.9052 16.12705414231416","mean_motion":16.12705414,"eccentricity":0.0002731,"inclination_deg":53.2106,"raan_deg":317.6642,"arg_perigee_deg":35.2165,"mean_anomaly_deg":324.9052,"bstar":0.00053543,"rev_number":23141,"period_min":89.290950938669,"perigee_km":237.6247482525,"apogee_km":241.23926444377,"semimajor_km":6617.5690063481,"source":"CELESTRAK","updated_at":"2026-09-20T09:00:40.181965Z"}}